TimeCDT,TemperatureF,Dew PointF,Humidity,Sea Level PressureIn,VisibilityMPH,Wind Direction,Wind SpeedMPH,Gust SpeedMPH,PrecipitationIn,Events,Conditions,WindDirDegrees,DateUTC
12:15 AM,17.6,14.0,86,29.96,10.0,Calm,Calm,-,N/A,,Clear,0,2013-04-24 05:15:00
12:35 AM,14.0,12.2,93,29.96,10.0,Calm,Calm,-,N/A,,Clear,0,2013-04-24 05:35:00
12:55 AM,14.0,12.2,93,29.96,10.0,Calm,Calm,-,N/A,,Clear,0,2013-04-24 05:55:00
1:15 AM,14.0,12.2,93,29.95,10.0,Calm,Calm,-,N/A,,Clear,0,2013-04-24 06:15:00
1:35 AM,14.0,12.2,93,29.95,10.0,Calm,Calm,-,N/A,,Clear,0,2013-04-24 06:35:00
1:55 AM,14.0,12.2,93,29.94,10.0,Calm,Calm,-,N/A,,Clear,0,2013-04-24 06:55:00
2:15 AM,12.2,10.4,92,29.94,10.0,Calm,Calm,-,N/A,,Clear,0,2013-04-24 07:15:00
2:35 AM,12.2,10.4,92,29.94,10.0,Calm,Calm,-,N/A,,Clear,0,2013-04-24 07:35:00
2:55 AM,10.4,8.6,92,29.94,10.0,Calm,Calm,-,N/A,,Clear,0,2013-04-24 07:55:00
3:15 AM,10.4,8.6,92,29.94,10.0,Calm,Calm,-,N/A,,Clear,0,2013-04-24 08:15:00
3:35 AM,10.4,8.6,92,29.94,10.0,Calm,Calm,-,N/A,,Clear,0,2013-04-24 08:35:00
3:55 AM,10.4,8.6,92,29.94,10.0,Calm,Calm,-,N/A,,Clear,0,2013-04-24 08:55:00
4:15 AM,10.4,6.8,85,29.94,10.0,Calm,Calm,-,N/A,,Clear,0,2013-04-24 09:15:00
4:35 AM,10.4,6.8,85,29.94,10.0,Calm,Calm,-,N/A,,Clear,0,2013-04-24 09:35:00
4:55 AM,8.6,6.8,92,29.94,10.0,Calm,Calm,-,N/A,,Clear,0,2013-04-24 09:55:00
5:15 AM,8.6,5.0,85,29.94,10.0,Calm,Calm,-,N/A,,Clear,0,2013-04-24 10:15:00
5:35 AM,8.6,5.0,85,29.94,10.0,Calm,Calm,-,N/A,,Clear,0,2013-04-24 10:35:00
5:55 AM,6.8,5.0,92,29.94,10.0,Calm,Calm,-,N/A,,Clear,0,2013-04-24 10:55:00
6:15 AM,8.6,5.0,85,29.94,10.0,Calm,Calm,-,N/A,,Clear,0,2013-04-24 11:15:00
6:35 AM,8.6,6.8,92,29.94,10.0,Calm,Calm,-,N/A,,Clear,0,2013-04-24 11:35:00
6:55 AM,12.2,8.6,85,29.94,10.0,Calm,Calm,-,N/A,,Clear,0,2013-04-24 11:55:00
7:15 AM,15.8,14.0,93,29.94,10.0,Calm,Calm,-,N/A,,Clear,0,2013-04-24 12:15:00
7:35 AM,21.2,19.4,93,29.94,10.0,Calm,Calm,-,N/A,,Clear,0,2013-04-24 12:35:00
8:15 AM,26.6,26.6,100,29.94,10.0,West,3.5,-,N/A,,Clear,270,2013-04-24 13:15:00
8:35 AM,30.2,23.0,75,29.94,10.0,West,4.6,-,N/A,,Clear,260,2013-04-24 13:35:00
8:55 AM,32.0,23.0,69,29.94,10.0,Calm,Calm,-,0.01,,Clear,0,2013-04-24 13:55:00
9:15 AM,33.8,21.2,60,29.93,10.0,WNW,5.8,-,N/A,,Clear,300,2013-04-24 14:15:00
9:35 AM,33.8,21.2,60,29.93,10.0,WNW,5.8,-,N/A,,Clear,300,2013-04-24 14:35:00
9:55 AM,35.6,21.2,56,29.93,10.0,WNW,6.9,-,N/A,,Clear,290,2013-04-24 14:55:00
10:15 AM,35.6,19.4,52,29.92,10.0,West,8.1,-,N/A,,Clear,280,2013-04-24 15:15:00
10:35 AM,37.4,19.4,48,29.92,10.0,WSW,6.9,-,N/A,,Clear,250,2013-04-24 15:35:00
10:55 AM,37.4,17.6,45,29.92,10.0,West,8.1,-,N/A,,Clear,260,2013-04-24 15:55:00
11:15 AM,37.4,19.4,48,29.92,10.0,West,5.8,-,N/A,,Clear,280,2013-04-24 16:15:00
11:35 AM,37.4,19.4,48,29.92,10.0,West,6.9,-,N/A,,Clear,260,2013-04-24 16:35:00
11:55 AM,39.2,19.4,45,29.91,10.0,West,9.2,-,N/A,,Clear,280,2013-04-24 16:55:00
12:15 PM,39.2,19.4,45,29.91,10.0,West,9.2,-,N/A,,Clear,260,2013-04-24 17:15:00
12:35 PM,41.0,19.4,42,29.91,10.0,WSW,5.8,16.1,N/A,,Clear,240,2013-04-24 17:35:00
1:15 PM,41.0,19.4,42,29.89,10.0,SW,9.2,16.1,N/A,,Scattered Clouds,220,2013-04-24 18:15:00
1:35 PM,41.0,19.4,42,29.89,10.0,WNW,11.5,16.1,N/A,,Scattered Clouds,300,2013-04-24 18:35:00
1:55 PM,41.0,19.4,42,29.89,10.0,WSW,8.1,16.1,N/A,,Scattered Clouds,250,2013-04-24 18:55:00
2:15 PM,42.8,19.4,39,29.89,10.0,West,9.2,17.3,N/A,,Scattered Clouds,270,2013-04-24 19:15:00
2:35 PM,42.8,19.4,39,29.88,10.0,WSW,8.1,-,N/A,,Scattered Clouds,240,2013-04-24 19:35:00
2:55 PM,44.6,19.4,37,29.87,10.0,WSW,9.2,-,N/A,,Scattered Clouds,240,2013-04-24 19:55:00
3:15 PM,42.8,19.4,39,29.87,10.0,West,9.2,-,N/A,,Scattered Clouds,260,2013-04-24 20:15:00
3:35 PM,44.6,19.4,37,29.87,10.0,WSW,9.2,-,N/A,,Mostly Cloudy,250,2013-04-24 20:35:00
3:55 PM,42.8,21.2,42,29.87,10.0,West,15.0,19.6,N/A,,Mostly Cloudy,260,2013-04-24 20:55:00
4:15 PM,44.6,21.2,39,29.86,10.0,West,5.8,-,N/A,,Overcast,280,2013-04-24 21:15:00
4:35 PM,44.6,21.2,39,29.86,10.0,WSW,6.9,16.1,N/A,,Mostly Cloudy,250,2013-04-24 21:35:00
4:55 PM,44.6,21.2,39,29.86,10.0,SW,10.4,-,N/A,,Mostly Cloudy,220,2013-04-24 21:55:00
5:15 PM,42.8,21.2,42,29.86,10.0,WSW,11.5,20.7,N/A,,Overcast,240,2013-04-24 22:15:00
5:35 PM,44.6,21.2,39,29.86,10.0,WSW,8.1,18.4,N/A,,Overcast,240,2013-04-24 22:35:00
5:55 PM,44.6,21.2,39,29.85,10.0,WSW,5.8,17.3,N/A,,Mostly Cloudy,240,2013-04-24 22:55:00
6:15 PM,42.8,21.2,42,29.86,10.0,West,13.8,20.7,N/A,,Mostly Cloudy,270,2013-04-24 23:15:00
6:35 PM,42.8,23.0,46,29.85,10.0,WSW,10.4,-,N/A,,Mostly Cloudy,250,2013-04-24 23:35:00
6:55 PM,42.8,23.0,46,29.85,10.0,WSW,9.2,-,N/A,,Mostly Cloudy,250,2013-04-24 23:55:00
7:15 PM,41.0,23.0,49,29.85,10.0,WSW,5.8,-,N/A,,Mostly Cloudy,250,2013-04-25 00:15:00
7:35 PM,41.0,21.2,45,29.85,10.0,WSW,9.2,-,N/A,,Overcast,250,2013-04-25 00:35:00
7:55 PM,41.0,21.2,45,29.85,10.0,SW,4.6,-,N/A,,Overcast,230,2013-04-25 00:55:00
8:15 PM,41.0,21.2,45,29.85,10.0,SW,3.5,-,N/A,,Overcast,230,2013-04-25 01:15:00
8:35 PM,41.0,21.2,45,29.85,10.0,SW,3.5,-,N/A,,Overcast,230,2013-04-25 01:35:00
8:55 PM,39.2,21.2,49,29.85,10.0,Calm,Calm,-,N/A,,Overcast,0,2013-04-25 01:55:00
10:15 PM,37.4,24.8,60,29.87,10.0,West,6.9,-,N/A,,Scattered Clouds,270,2013-04-25 03:15:00
10:35 PM,37.4,30.2,75,29.87,10.0,WNW,5.8,17.3,N/A,,Mostly Cloudy,290,2013-04-25 03:35:00
10:55 PM,35.6,30.2,81,29.87,10.0,West,10.4,-,N/A,,Overcast,280,2013-04-25 03:55:00
11:15 PM,35.6,30.2,81,29.87,10.0,West,4.6,-,N/A,,Overcast,280,2013-04-25 04:15:00
11:35 PM,33.8,32.0,93,29.87,3.0,WNW,4.6,-,N/A,Snow,Light Snow,290,2013-04-25 04:35:00
11:55 PM,33.8,32.0,93,29.87,1.2,Calm,Calm,-,N/A,Snow,Light Snow,0,2013-04-25 04:55:00